{"data":{"norad_id":60356,"epoch":"2026-05-25T04:17:28.594752Z","epoch_age_seconds":66424,"freshness":"FRESH","line1":"1 60356U 24138B   26145.17880318  .00000003  00000+0  12240-4 0  9997","line2":"2 60356  53.1615 314.6505 0001117  99.3041 260.8086 15.30191377102339","mean_motion":15.30191377,"eccentricity":0.0001117,"inclination_deg":53.1615,"raan_deg":314.6505,"arg_perigee_deg":99.3041,"mean_anomaly_deg":260.8086,"bstar":1.224e-5,"rev_number":10233,"period_min":94.105876012919,"perigee_km":474.47529396185,"apogee_km":476.006338566,"semimajor_km":6853.3778162639,"source":"CELESTRAK","updated_at":"2026-05-25T13:38:19.237899Z"}}